Location: Casco Millpond
(44.5581°N, 87.6111°W)
Time: 22:15:05
(UTC+00:00)

Atlas Centaur 2 - Pass Details

Date: 16 January 2026
Orbit: 456 x 1249 km, 30.4° (Epoch: 13 February)

Event Time Altitude Azimuth Distance (km) Brightness Sun altitude
Rises 12:33:44 0° 241° (WSW) 3,291 4.9 -8.8°
Reaches altitude 10° 12:36:33 10° 226° (SW) 2,501 4.4 -8.3°
Maximum altitude 12:41:12 23° 177° (S) 1,943 4.4 -7.6°
Drops below altitude 10° 12:46:34 10° 128° (SE) 2,929 6.5 -6.7°
Sets 12:50:10 0° 116° (ESE) 4,003 8.6 -6.1°
